Flag for USA

Past Weather in Deception Pass State Park, Washington, USA — Yesterday and Last 2 Weeks

Now
59 °F

Partly sunny.


Feels Like: 59 °F
Forecast: 66 / 50 °F
Wind: No wind

Location: Whidbey Island

Current Time: Jun 25, 2019 at 8:54:34 am

Latest Report: Jun 25, 2019 at 7:56 am


Visibility: 10 mi

Pressure: 29.94 "Hg

Humidity: 67%

Dew Point: 48 °F

Location of Deception Pass State ParkLocation

Past Weather in Deception Pass State Park — Graph

°F

Deception Pass State Park Temperature Yesterday

Maximum temperature yesterday: 64 °F (at 1:56 pm)
Minimum temperature yesterday: 53 °F (at 11:56 pm)
Average temperature yesterday: 59 °F

High & Low Weather Summary for the Past Weeks

 TemperatureHumidityPressure
High77 °F (Jun 12, 2:56 pm)89% (Jun 11, 5:56 am)30.37 "Hg (Jun 11, 5:56 am)
Low46 °F (Jun 25, 4:56 am)40% (Jun 21, 5:56 pm)29.83 "Hg (Jun 12, 8:56 pm)
Average60 °F70%30.14 "Hg
* Reported Jun 10 6:56 am — Jun 25 6:56 am, Deception Pass State Park. Weather by CustomWeather, © 2019

Note: Actual official high and low records may vary slightly from our data, if they occured in-between our weather recording intervals... More about our weather records

Advertising

Deception Pass State Park Weather History for the Previous 24 Hours

Scroll right to see more
 ConditionsComfort  
Time TempWeatherWind HumidityBarometerVisibility
6:56 am
Tue, Jun 25
54 °FPartly sunny.No wind80%29.94 "Hg10 mi
5:56 am47 °FScattered clouds.3 mph83%29.93 "Hg9 mi
4:56 am46 °FPassing clouds.3 mph83%29.94 "Hg9 mi
3:56 am47 °FPassing clouds.No wind83%29.93 "Hg10 mi
2:56 am49 °FPassing clouds.3 mph84%29.95 "Hg10 mi
1:56 am50 °FPassing clouds.No wind83%29.96 "Hg10 mi
12:56 am53 °FPassing clouds.3 mph77%29.97 "Hg10 mi
11:56 pm
Mon, Jun 24
53 °FPassing clouds.No wind77%29.97 "Hg10 mi
10:56 pm55 °FPartly cloudy.3 mph77%29.98 "Hg10 mi
9:56 pm56 °FPassing clouds.5 mph75%29.99 "Hg10 mi
8:56 pm56 °FPartly sunny.7 mph75%29.98 "Hg10 mi
7:56 pm58 °FPartly sunny.3 mph72%30.00 "Hg10 mi
6:56 pm61 °FSunny.6 mph65%30.01 "Hg10 mi
5:56 pm64 °FBroken clouds.5 mph54%30.02 "Hg10 mi
4:56 pm64 °FBroken clouds.6 mph54%30.04 "Hg10 mi
3:56 pm64 °FBroken clouds.6 mph58%30.05 "Hg10 mi
2:56 pm64 °FSunny.8 mph56%30.07 "Hg10 mi
1:56 pm64 °FPartly sunny.10 mph54%30.09 "Hg10 mi
12:56 pm63 °FPartly sunny.12 mph54%30.09 "Hg10 mi
11:56 am62 °FPartly sunny.10 mph58%30.10 "Hg10 mi
10:56 am62 °FBroken clouds.9 mph62%30.11 "Hg10 mi
9:56 am60 °FBroken clouds.10 mph67%30.11 "Hg10 mi
8:56 am60 °FPartly sunny.9 mph67%30.11 "Hg10 mi
Weather by CustomWeather, © 2019

See weather overview